XW-2B                   
1 40911U 15049N   20274.49293951  .00001174  00000-0  63835-4 0  9993
2 40911  97.4806 274.7426 0014699  14.2245 136.7162 15.16364938278087
KAITUO 1B               
1 40912U 15049P   20274.46257400  .00002016  00000-0  95105-4 0  9991
2 40912  97.4507 280.9918 0014074 338.7654 125.1332 15.20556322278677
TIANWANG 1C (TW-1C)     
1 40926U 15051B   20274.55204144  .00057163  00000-0  45866-3 0  9997
2 40926  97.0730 327.2651 0006144  68.8078  37.2762 15.70822944283492
TIANWANG 1A (TW-1A)     
1 40928U 15051D   20274.53748309  .00005335  00000-0  12204-3 0  9997
2 40928  97.1041 299.8074 0010834 153.6313 310.0967 15.43168930281573
LAPAN-A2                
1 40931U 15052B   20273.70112835  .00000665  00000-0  35368-5 0  9998
2 40931   5.9972 311.9912 0013466 314.9716  44.9420 14.76643175270699
E-ST@R-II               
1 41459U 16025D   20274.53529432  .00004191  00000-0  21165-3 0  9998
2 41459  98.1128  30.0696 0164153 217.6993 141.2656 15.06691374243269
AAUSAT 4                
1 41460U 16025E   20274.44190461  .00005017  00000-0  24483-3 0  9990
2 41460  98.1114  32.6875 0152389 205.4255 153.9421 15.09119382243477
NUSAT-1 (FRESCO)        
1 41557U 16033B   20274.49968020  .00002355  00000-0  88004-4 0  9997
2 41557  97.4021   4.0483 0015183  78.1281  45.2667 15.28259552241811
BEESAT-4                
1 41619U 16040W   20274.27390749  .00002818  00000-0  11809-3 0  9999
2 41619  97.3093 331.2815 0011569 161.7041 198.4616 15.24271613225364
CAS-2T & KS-1Q          
1 41847U 16066G   20274.19808238  .00000114  00000-0  28595-4 0  9996
2 41847  98.6431 325.7085 0364441 276.7912  79.1942 14.38094052204478
NAYIF-1 (EO-88)         
1 42017U 17008BX  20274.42276997  .00002958  00000-0  11512-3 0  9998
2 42017  97.3510 340.4164 0004908 323.8487  36.2420 15.26784174201565
MAX VALIER SAT          
1 42778U 17036P   20274.42058562  .00001718  00000-0  76322-4 0  9993
2 42778  97.2944 325.1002 0012567  21.1297 339.0457 15.22796350181709
RADFXSAT (FOX-1B)       
1 43017U 17073E   20274.32327033  .00001141  00000-0  92697-4 0  9995
2 43017  97.7151 182.4836 0258085  68.7317 294.1245 14.79035227154668
FOX-1D (AO-92)          
1 43137U 18004AC  20274.45814506  .00001894  00000-0  80335-4 0  9994
2 43137  97.4372 344.8704 0010382  53.5351 306.6842 15.24317543151043
DIWATA-2B               
1 43678U 18084H   20274.52378533  .00000205  00000-0  26156-4 0  9991
2 43678  97.8953  32.9919 0009551 181.5320 178.5840 14.91656127104688
ES'HAIL 2               
1 43700U 18090A   20274.50676262  .00000129  00000-0  00000-0 0  9993
2 43700   0.0235 168.5961 0002067  43.0546   6.2713  1.00270870  6762
FOX-1CLIFF (AO-95)      
1 43770U 18099N   20274.45527948  .00000259  00000-0  28835-4 0  9993
2 43770  97.6974 343.9618 0014081 201.2593 158.8044 14.95049718 99607
ITASAT 1                
1 43786U 18099AE  20274.22796775  .00000537  00000-0  53777-4 0  9993
2 43786  97.6994 344.2332 0014743 195.0152 165.0633 14.95383416 99597
JY1SAT (JO-97)          
1 43803U 18099AX  20274.16282373  .00000580  00000-0  57384-4 0  9996
2 43803  97.6955 343.9641 0014688 195.5073 164.5700 14.95572822 99587
PSAT2 (NO-104)          
1 44354U 19036R   20274.47495192  .00012875  00000-0  18449-3 0  9997
2 44354  28.5312  49.9601 0356707 354.2184   5.4361 15.05412742 69653
BRICSAT2 (NO-103)       
1 44355U 19036S   20274.44790877  .00026695  00000-0  35959-3 0  9993
2 44355  28.5302  35.0414 0328888  18.5096 342.7156 15.12554616 69803
JAISAT-1                
1 44419U 19038F   20274.45662286  .00001480  00000-0  87224-4 0  9997
2 44419  97.5504 234.8948 0022780 126.0427 234.2919 15.12941417 68473
DUCHIFAT-3              
1 44854U 19089C   20274.20021152  .00000627  00000-0  56960-4 0  9995
2 44854  36.9662 199.2904 0007990 198.5002 161.5464 14.99139673 44022
RS-44 & BREEZE-KM R/B   
1 44909U 19096E   20274.51394175  .00000028  00000-0  71881-4 0  9990
2 44909  82.5168 285.5050 0217020 341.1749  18.1415 12.79708358 35620
ORBITAL FACTORY 2 (OF-2)
1 45113U 19071C   20274.27291793  .00004147  00000-0  13636-3 0  9995
2 45113  51.6419 217.0675 0013581  75.8398 284.4092 15.33728895 37211
HUSKYSAT-1              
1 45119U 19071J   20274.30249624  .00004005  00000-0  13134-3 0  9997
2 45119  51.6422 216.5150 0012834  72.4448 287.7935 15.33921327 37219
